Moses Lake, WA

3:59 PM PDT on April 23, 2017 (GMT -0700)
Grant County International

Weather History for KMWH - May, 2013

Change the Weather History Date:

Sunday, May 26, 2013

  Actual Average Record
Temperature  
Mean Temperature 59 °F 62 °F  
Max Temperature 73 °F 76 °F 91 °F (1983)
Min Temperature 44 °F 48 °F 43 °F (1998)
Degree Days  
Heating Degree Days 6 4  
Month to date heating degree days 135 191  
Since 1 July heating degree days 5243 5808  
Cooling Degree Days 0 1  
Month to date cooling degree days 50 16  
Year to date cooling degree days 50 17  
Growing Degree Days 8 (Base 50)    
Moisture  
Dew Point 41 °F    
Average Humidity 53    
Maximum Humidity 76    
Minimum Humidity 29    
Precipitation  
Precipitation 0.00 in 0.02 in 0.40 in (1980)
Month to date precipitation 0.20 0.50  
Year to date precipitation 1.58 3.92  
Sea Level Pressure  
Sea Level Pressure 29.93 in    
Wind  
Wind Speed 7 mph (WSW)    
Max Wind Speed 17 mph    
Max Gust Speed 22 mph    
Visibility 10 miles    
Events      
T = Trace of Precipitation, MM = Missing Value Source: NWS Daily Summary

Daily Weather History Graph

Daily Weather History Graph

Search for Another Location

Airport or City:

Trip Planner

Search our weather history database for the weather conditions in past years. The results will help you decide how hot, cold, wet, or windy it might be!

Date:

Astronomy

May. 26, 2013 Rise Set
Actual Time 5:09 AM PDT 8:39 PM PDT
Civil Twilight 4:31 AM PDT 9:18 PM PDT
Nautical Twilight 3:40 AM PDT 10:08 PM PDT
Astronomical Twilight 2:34 AM PDT 11:16 PM PDT
Moon 10:29 PM PDT (5/26) 6:45 AM PDT (5/26)
Length of Visible Light 16h 46m
Length of Day
15h 30m
Waning Gibbous, 96% of the Moon is Illuminated
May 26
Waning Gibbous
May 31
Last Quarter
Jun 8
New
Jun 16
First Quarter
Jun 23
Full

Hourly Weather History & Observations

Time (PDT) Temp. Windchill Dew Point Humidity Pressure Visibility Wind Dir Wind Speed Gust Speed Precip Events Conditions
12:52 AM 45.0 °F 41.8 °F 37.0 °F 74% 29.95 in 10.0 mi North 5.8 mph - N/A   Clear
1:52 AM 45.0 °F 42.6 °F 37.0 °F 74% 29.95 in 10.0 mi North 4.6 mph - N/A   Clear
2:52 AM 45.0 °F 40.6 °F 37.0 °F 74% 29.95 in 10.0 mi North 8.1 mph - N/A   Clear
3:52 AM 45.0 °F 40.6 °F 37.0 °F 74% 29.95 in 10.0 mi North 8.1 mph - N/A   Clear
4:52 AM 46.0 °F 41.4 °F 37.0 °F 71% 29.95 in 10.0 mi NNE 9.2 mph - N/A   Overcast
5:52 AM 45.0 °F 41.2 °F 37.9 °F 76% 29.95 in 10.0 mi North 6.9 mph - N/A   Mostly Cloudy
6:52 AM 48.9 °F - 39.0 °F 69% 29.95 in 10.0 mi NNE 8.1 mph - N/A   Overcast
7:52 AM 52.0 °F - 41.0 °F 66% 29.95 in 10.0 mi NNE 5.8 mph - N/A   Overcast
8:52 AM 57.9 °F - 43.0 °F 58% 29.96 in 10.0 mi Variable 3.5 mph - N/A   Overcast
9:52 AM 63.0 °F - 43.0 °F 48% 29.95 in 10.0 mi NNE 4.6 mph - N/A   Mostly Cloudy
10:52 AM 68.0 °F - 42.1 °F 39% 29.94 in 10.0 mi WSW 5.8 mph - N/A   Overcast
11:52 AM 70.0 °F - 41.0 °F 35% 29.94 in 10.0 mi WSW 8.1 mph - N/A   Mostly Cloudy
12:52 PM 70.0 °F - 37.0 °F 30% 29.94 in 10.0 mi SSW 6.9 mph - N/A   Clear
1:52 PM 71.1 °F - 37.0 °F 29% 29.92 in 10.0 mi Variable 5.8 mph - N/A   Clear
2:52 PM 72.0 °F - 37.9 °F 29% 29.91 in 10.0 mi SW 11.5 mph - N/A   Partly Cloudy
3:52 PM 71.1 °F - 39.9 °F 32% 29.90 in 10.0 mi SSW 11.5 mph - N/A   Clear
4:52 PM 70.0 °F - 43.0 °F 38% 29.91 in 10.0 mi SSW 8.1 mph - N/A   Clear
5:52 PM 68.0 °F - 43.0 °F 40% 29.90 in 10.0 mi South 12.7 mph - N/A   Mostly Cloudy
6:52 PM 66.9 °F - 45.0 °F 45% 29.91 in 10.0 mi South 12.7 mph 19.6 mph N/A   Mostly Cloudy
7:52 PM 64.9 °F - 45.0 °F 48% 29.92 in 10.0 mi SSW 10.4 mph - N/A   Overcast
8:52 PM 64.0 °F - 44.1 °F 48% 29.92 in 10.0 mi SSW 8.1 mph - N/A   Overcast
9:52 PM 63.0 °F - 46.0 °F 54% 29.91 in 10.0 mi South 6.9 mph - N/A   Overcast
10:52 PM 60.1 °F - 48.0 °F 64% 29.92 in 10.0 mi South 4.6 mph - N/A   Overcast
11:52 PM 55.9 °F - 46.0 °F 69% 29.91 in 10.0 mi Calm Calm - N/A   Mostly Cloudy